Regional Weather Roundup
Issued by NWS San Angelo, TX

Home | Current Version | Previous Version | Text Only | Print | Product List | Glossary On
Versions: 1 2 3 4 5 6 7 8 9 10 11 12 13 14 15 16 17 18 19 20 21 22 23 24 25 26 27 28 29 30 31 32 33 34 35 36 37 38 39 40 41 42 43 44 45 46 47 48 49 50
000
ASUS44 KSJT 240011
RWRSJT
WEST CENTRAL TEXAS REGIONAL WEATHER ROUNDUP
NATIONAL WEATHER SERVICE SAN ANGELO TX
700 PM CDT SAT JUL 23 2016

NOTE: "FAIR" INDICATES FEW OR NO CLOUDS BELOW 12,000 FEET WITH NO
SIGNIFICANT WEATHER AND/OR OBSTRUCTIONS TO VISIBILITY.

TXZ049-054-064>066-071>073-076>078-098-099-113-114-127-128-139-140-
154-155-168>170-240100
...LOCATIONS ACROSS WEST CENTRAL TEXAS...

CITY           SKY/WX    TMP DP  RH WIND       PRES   REMARKS
SAN ANGELO     SUNNY     98  58  26 E6        29.87F
ABILENE        SUNNY     98  60  28 S12       29.89F
DYESS AFB      SUNNY     98  62  30 SE10      29.88S
JUNCTION       SUNNY     99  58  25 SE13G22   29.88F
SWEETWATER     SUNNY     96  58  27 SE9       29.95S
BROWNWOOD      LGT RAIN  97  55  24 SE13G18   29.88S
COLEMAN        CLEAR     99  57  24 SE9       29.89S
SONORA         SUNNY     99  57  25 S12       29.93F
OZONA          FAIR      97  55  24 S15G29    29.93F
BRADY          NOT AVBL
$$

TEXAS PANHANDLE/OKLAHOMA PANHANDLE

CITY           SKY/WX    TMP DP  RH WIND       PRES   REMARKS
AMARILLO       SUNNY     96  50  20 S20       29.96F
BORGER         SUNNY    100  48  17 S14G22    29.90F
CANADIAN       SUNNY     99  56  24 S13       29.86F
DALHART        SUNNY     98  46  17 S16G23    29.95F
DUMAS          CLEAR    100  47  16 S17       29.93F
GUYMON         NOT AVBL
HEREFORD       CLEAR    N/A N/A N/A S20       29.98F
PAMPA          CLEAR     98  52  21 S13       29.93F
PERRYTON       SUNNY    103  49  16 S20G26    29.88S
$$

SOUTHERN PANHANDLE/SOUTH PLAINS/ROLLING PLAINS

CITY           SKY/WX    TMP DP  RH WIND       PRES   REMARKS
LUBBOCK        MOSUNNY   96  54  24 SE15      29.96F
SNYDER           N/A     96  60  30 SE9       29.92F
CHILDRESS      SUNNY     98  59  27 S10       29.86F
SEMINOLE       CLEAR     98  48  18 S10G16    29.96F
$$

PERMIAN BASIN

CITY           SKY/WX    TMP DP  RH WIND       PRES   REMARKS
MIDLAND        SUNNY     99  55  23 S10G18    29.92F
ODESSA         SUNNY     98  54  22 SE14      29.93F
WINK           SUNNY    101  52  19 E14G21    29.86F
$$

FAR WEST/SOUTHWEST MOUNTAINS/TRANS PECOS

CITY           SKY/WX    TMP DP  RH WIND       PRES   REMARKS
ALPINE         CLEAR     96  47  18 E12G17    30.06S
DRYDEN           N/A     99  58  25 E16G30    29.86F
EL PASO        MOSUNNY  102  37  10 S10       29.91F
FORT STOCKTON  SUNNY     98  56  24 SE17G26   29.89F
GUADALUPE PASS SUNNY     93  37  14 E10       30.09F
MARFA          SUNNY     93  50  23 CALM      30.05F
PECOS          CLEAR    104  49  16 E12G18    29.84F
$$

DALLAS/FORT WORTH METROPLEX

CITY           SKY/WX    TMP DP  RH WIND       PRES   REMARKS
DFW AIRPORT    MOSUNNY   97  67  37 SE12      29.85F
FTW MEACHAM    SUNNY     99  65  32 S12       29.85F
DAL-EXECUTIVE  SUNNY     96  67  38 S9        29.86F
GRAND PRAIRIE  SUNNY     97  64  34 SE9       29.87F
ADDISON        MOSUNNY   97  68  38 S6G18     29.87F
MESQUITE       CLEAR     95  70  43 SE7       29.87F
LANCASTER      CLEAR     98  68  37 S8        29.87F
$$

NORTH CENTRAL TEXAS

CITY           SKY/WX    TMP DP  RH WIND       PRES   REMARKS
SHRMAN/DENISON CLEAR     96  69  40 S8        29.88S
GAINESVILLE    SUNNY     95  70  43 SE8       29.89S
BRIDGEPORT     CLEAR     98  67  35 S7        29.88S
DENTON         SUNNY     96  70  42 S9        29.86F
WAXAHACHIE     CLEAR     96  70  43 S9        29.88F
GRANBURY       CLEAR     99  64  30 SE13G20   29.86F
$$

WESTERN NORTH TEXAS

CITY           SKY/WX    TMP DP  RH WIND       PRES   REMARKS
WICHITA FALLS  SUNNY     98  65  33 SE14      29.84F
VERNON         CLEAR    101  52  19 S9        29.85S
BRECKENRIDGE   CLEAR    100  60  26 SE10      29.87S
COMANCHE       SUNNY     97  61  30 SE13      29.88F
$$

CENTRAL AND SOUTH CENTRAL TEXAS

CITY           SKY/WX    TMP DP  RH WIND       PRES   REMARKS
AUSTIN/BERGSTM MOSUNNY   98  67  36 SE10      29.86F
WACO           SUNNY     97  66  36 SE12      29.86F
HILLSBORO      PTCLDY    96  67  37 SE7       29.87F
TEMPLE         SUNNY     96  69  41 SE13      29.88F
KILLEEN-GRAY   SUNNY     96  64  34 SE8       29.87F
FORT HOOD      SUNNY     96  65  36 SE10      29.85F
GEORGETOWN     SUNNY     97  66  36 SE6       29.88F
LAGO VISTA     FAIR      95  63  34 SE5       29.91F
SAN MARCOS     MOSUNNY   95  66  38 SE8       29.88F
NEW BRAUNFELS  SUNNY     98  66  34 S9        29.85F
RANDOLPH AFB   SUNNY     97  66  35 S9        29.86F
SAN ANTONIO    MOSUNNY   97  66  36 SE10      29.86F
STINSON        SUNNY    100  64  30 E12       29.83F
PLEASANTON     NOT AVBL
LA GRANGE        N/A     98  72  42 SE5       29.84F
GIDDINGS       PTCLDY    96  66  37 S5        29.90F
$$

EAST TEXAS

CITY           SKY/WX    TMP DP  RH WIND       PRES   REMARKS
PARIS          SUNNY     99  66  34 SE15G33   29.90R
CLARKSVILLE    NOT AVBL
TYLER          SUNNY     97  70  41 SW7       29.88S
LONGVIEW       CLOUDY    93  74  53 CALM      29.86F
PALESTINE      CLEAR     96  71  44 S6        29.88F
NACOGDOCHES    CLOUDY   N/A N/A N/A S5        29.86S
$$

TEXAS HILL COUNTRY AND EDWARDS PLATEAU

CITY           SKY/WX    TMP DP  RH WIND       PRES   REMARKS
LLANO          CLEAR     99  59  26 S12       29.89F
HORSESHOE BAY  FAIR      98  63  31 SE7       29.88F
KERRVILLE      SUNNY     97  66  35 S12       29.91F
FREDERICKSBRG  SUNNY     94  56  27 S8        29.92S
ROCKSPRINGS    PTCLDY    97  57  26 SE10G18   29.96F
HONDO          SUNNY     98  63  31 SE15      29.87F
UVALDE         CLEAR     98  62  29 SE10      29.85F
DEL RIO        SUNNY    102  59  24 S15       29.80F
$$

SOUTHEAST TEXAS

CITY           SKY/WX    TMP DP  RH WIND       PRES   REMARKS
COLLEGE STN    SUNNY     97  68  38 S9        29.87F
CALDWELL       CLEAR     95  63  34 SE8       29.90F
CROCKETT       CLEAR     95  72  46 S5        29.90F
BRENHAM        SUNNY     97  69  39 S7        29.87F
HUNTSVILLE     MOSUNNY   98  67  36 VRB3      29.87F
CONROE         CLOUDY    93  73  52 SE7       29.88F
HOUSTON BUSH   MOSUNNY   93  75  55 S9        29.87F
HOUSTON HOBBY  PTSUNNY   91  73  55 S12       29.88F
PERLAND        SUNNY     93  73  52 S12       29.90F
WHARTON        CLEAR     92  72  52 S14       29.89F
$$

THE UPPER TEXAS COAST

CITY           SKY/WX    TMP DP  RH WIND       PRES   REMARKS
ORANGE         CLEAR     90  70  52 S8        29.92R
PORT ARTHUR    SUNNY     89  74  60 S9        29.90S
GALVESTON      SUNNY     88  77  69 S17       29.91F
ANGLETON       SUNNY     91  75  59 S16       29.90F
BAY CITY       CLEAR     91  75  58 S10       29.90S
$$

TEXAS COASTAL BEND, RIO GRANDE PLAINS DEEP SOUTH TEXAS

CITY           SKY/WX    TMP DP  RH WIND       PRES   REMARKS
VICTORIA       SUNNY     92  70  48 SE15      29.87F
BEEVILLE       FAIR      94  73  49 SE16G24   29.87S
ROCKPORT       MOSUNNY   89  76  65 SE13      29.87F
PORT ARANSAS   PTCLDY    87  78  72 SE12      29.88F
PORT LAVACA    CLEAR     90  76  64 SE15      29.88F
CORPUS CHRISTI MOSUNNY   90  74  59 SE13G22   29.87F
KINGSVILLE NAS SUNNY     90  78  68 SE17G23   29.86F
COTULLA        MOSUNNY  101  60  25 SE12      29.81F
LAREDO         SUNNY    101  66  31 E15       29.80F
BROWNSVILLE    SUNNY     89  75  63 SE15      29.87F
PORT ISABEL    SUNNY     89  76  65 SE16      29.87F
HEBBRONVILLE   PTCLDY    98  67  36 SE16G25   29.85S
MCALLEN        MOSUNNY   98  70  40 SE18      29.84S
WESLACO        SUNNY     90   0   3 SE16G23   29.84S
FALFURRIAS     CLEAR     94  69  44 SE14G23   29.84S
EDINBURG       PTCLDY    97  69  40 SE16      29.83F
$$



USA.gov is the U.S. government's official web portal to all federal, state and local government web resources and services.